Location: Unspecified
(40.7945°N, 0.0000°E)
Time: 02:49:13
(UTC+00:00)

Altair - Pass Details

Date: 26 January 2021
Orbit: 1501 x 1682 km, 47.2° (Epoch: 01 March)

Event Time Altitude Azimuth Distance (km) Brightness Sun altitude
Rises 12:28:02 0° 295° (WNW) 4,934 10.0 30.5°
Reaches altitude 10° 12:31:54 10° 283° (WNW) 3,931 9.7 30.5°
Maximum altitude 12:39:37 26° 233° (SW) 2,832 9.8 30.3°
Drops below altitude 10° 12:47:10 10° 181° (S) 3,831 11.2 30.1°
Sets 12:50:55 0° 170° (S) 4,784 11.1 30.0°
